Location: Austin
(30.3000°N, 97.7500°W)
Time: 19:24:52
(UTC-06:00)

Cosmos 1553 Rocket - Pass Details

Date: 31 October 2024
Orbit: 941 x 1007 km, 82.9° (Epoch: 05 November)

Event Time Altitude Azimuth Distance (km) Brightness Sun altitude
Rises 06:34:10 0° 350° (N) 3,678 6.8 -15.8°
Reaches altitude 10° 06:36:41 10° 348° (NNW) 2,737 6.2 -15.2°
Maximum altitude 06:42:54 66° 267° (W) 1,073 4.0 -13.9°
Drops below altitude 10° 06:49:11 10° 186° (S) 2,762 6.4 -12.6°
Sets 06:51:44 0° 184° (S) 3,714 7.1 -12.0°
